2018-096AB (43744 NORAD) Tracking and Keplerian Element Data

This shows tracking and keplerian element data for the satellite.

Feedback or suggestion? Click here.




ElementValue
Catalog43744
Name2018-096AB
Epoch Orbit457
Epoch Day363.20519611
Epoch Year2018
RAAN68.2378
Inclination97.4823
Eccentricity0.0017603
Argument of Perigee217.0186
Mean Anonmoly228.289
Mean Motion15.26280215
Decay Rate1.681E-05
L11 43744U 18096AB 18363.20519611 .00001681 00000-0 67477-4 0 9993
L22 43744 97.4823 68.2378 0017603 217.0186 228.2890 15.26280215 4572

Live tracking and technical data element details for 2018-096AB (NORAD 43744). 2018-096AB can be tracked NOW for your location showing map with azimuth and elevation plus other details from your city location.

Track the satellite on the map from your city or location and see movement details for azimuth, elevation, latitude, longitude, range, height, and movement on the map or in text.







IsCatalogInMostPopularTable: catalog: 43744, numindb: 70
Update: records affected: 1



GetName: 43744 2018-096AB

Hit Count: updated at: Wed, 24 Apr 2019 18:25:47 GMT